sat.trackr.live / text

‹ back to catalog

STARLINK-5573

NORAD 55750 · 2023-028K

PAYLOAD ACTIVE UNKNOWN

§ Identity

Operator
Country
US
Launch date
2023-03-03
Launch site
AFWTR
Launch vehicle
Mass (kg)
RCS (m²)

Purposes: comms

External: N2YO · Heavens-Above · Gunter

§ Orbital elements

Epoch: 2026-05-25T03:44:06.669600Z

Period
96.11 min
Inclination
70.0006°
Eccentricity
0.0002744
Mean motion
14.98331346 rev/d
Perigee alt
570.1 km
Apogee alt
574.0 km
Semi-major
6,950.2 km
B*
7.9341e-5
RAAN
51.6755°
Arg perigee
269.1629°
Mean anomaly
90.9215°
Rev number
17,749

§ Raw data

STARLINK-55731 55750U 23028K   26145.15563275  .00000854  00000+0  79341-4 0  99932 55750  70.0006  51.6755 0002744 269.1629  90.9215 14.98331346177494

JSON: /api/v1/satellites/55750 · /tle

For live sub-satellite position, see the globe view (requires WebGL).

§ Visibility from observer

Set your observer location to see the next 7 days of passes ≥ 10°. The values pass through the URL so the page stays shareable.

No JS? Fill the form by hand. The geolocation button needs JavaScript.